Time,TemperatureF,DewpointF,PressureIn,WindDirection,WindDirectionDegrees,WindSpeedMPH,WindSpeedGustMPH,Humidity,HourlyPrecipIn,Conditions,Clouds,dailyrainin,SoftwareType,DateUTC
2013-07-03 00:02:00,73.0,71.0,30.17,WSW,253,0.0,-999.0,92,-99.99,,,-99.99,,2013-07-03 04:02:00,
2013-07-03 00:22:00,73.0,71.0,30.17,South,172,0.0,-999.0,92,-99.99,,,-99.99,,2013-07-03 04:22:00,
2013-07-03 00:34:00,73.0,71.0,30.16,South,172,0.0,-999.0,92,-99.99,,,-99.99,,2013-07-03 04:34:00,
2013-07-03 00:43:00,74.0,72.0,30.16,South,172,0.0,-999.0,92,-99.99,,,-99.99,,2013-07-03 04:43:00,
2013-07-03 00:52:00,74.0,72.0,30.16,South,172,0.0,-999.0,92,-99.99,,,-99.99,,2013-07-03 04:52:00,
2013-07-03 01:02:00,73.0,71.0,30.17,South,172,0.0,-999.0,92,-99.99,,,-99.99,,2013-07-03 05:02:00,
2013-07-03 01:56:00,73.0,71.0,30.16,South,172,0.0,-999.0,93,-99.99,,,-99.99,,2013-07-03 05:56:00,
2013-07-03 02:07:00,73.0,71.0,30.16,South,172,0.0,-999.0,93,-99.99,,,-99.99,,2013-07-03 06:07:00,
2013-07-03 02:39:00,72.0,70.0,30.17,South,172,0.0,-999.0,93,-99.99,,,-99.99,,2013-07-03 06:39:00,
2013-07-03 02:50:00,72.0,70.0,30.17,South,172,0.0,-999.0,93,-99.99,,,-99.99,,2013-07-03 06:50:00,
2013-07-03 02:55:00,72.0,70.0,30.16,South,172,0.0,-999.0,93,-99.99,,,-99.99,,2013-07-03 06:55:00,
2013-07-03 03:07:00,72.0,70.0,30.16,South,172,0.0,-999.0,93,-99.99,,,-99.99,,2013-07-03 07:07:00,
2013-07-03 03:15:00,72.0,70.0,30.16,South,172,0.0,-999.0,93,-99.99,,,-99.99,,2013-07-03 07:15:00,
2013-07-03 03:38:00,71.0,69.0,30.17,South,172,0.0,-999.0,93,-99.99,,,-99.99,,2013-07-03 07:38:00,
2013-07-03 03:47:00,71.0,69.0,30.16,South,172,0.0,-999.0,94,-99.99,,,-99.99,,2013-07-03 07:47:00,
2013-07-03 03:57:00,71.0,69.0,30.16,South,172,0.0,-999.0,94,-99.99,,,-99.99,,2013-07-03 07:57:00,
2013-07-03 04:10:00,71.0,69.0,30.16,South,172,0.0,-999.0,93,-99.99,,,-99.99,,2013-07-03 08:10:00,
2013-07-03 04:16:00,71.0,69.0,30.16,South,172,0.0,-999.0,94,-99.99,,,-99.99,,2013-07-03 08:16:00,
2013-07-03 04:45:00,71.0,69.0,30.16,South,172,0.0,-999.0,94,-99.99,,,-99.99,,2013-07-03 08:45:00,
2013-07-03 05:07:00,71.0,69.0,30.16,South,172,0.0,-999.0,94,-99.99,,,-99.99,,2013-07-03 09:07:00,
2013-07-03 05:38:00,70.0,68.0,30.16,South,172,0.0,-999.0,94,-99.99,,,-99.99,,2013-07-03 09:38:00,
2013-07-03 05:47:00,70.0,68.0,30.16,South,172,0.0,-999.0,94,-99.99,,,-99.99,,2013-07-03 09:47:00,
2013-07-03 05:56:00,70.0,68.0,30.16,South,172,0.0,-999.0,94,-99.99,,,-99.99,,2013-07-03 09:56:00,
2013-07-03 06:06:00,70.0,68.0,30.16,South,172,0.0,-999.0,94,-99.99,,,-99.99,,2013-07-03 10:06:00,
2013-07-03 06:16:00,70.0,68.0,30.17,South,172,0.0,-999.0,94,-99.99,,,-99.99,,2013-07-03 10:16:00,
2013-07-03 06:28:00,71.0,69.0,30.17,South,186,0.0,-999.0,95,-99.99,,,-99.99,,2013-07-03 10:28:00,
2013-07-03 06:36:00,71.0,69.0,30.18,South,186,0.0,-999.0,95,-99.99,,,-99.99,,2013-07-03 10:36:00,
2013-07-03 06:45:00,71.0,69.0,30.18,South,186,0.0,-999.0,94,-99.99,,,-99.99,,2013-07-03 10:45:00,
2013-07-03 06:55:00,71.0,69.0,30.19,South,186,0.0,-999.0,94,-99.99,,,-99.99,,2013-07-03 10:55:00,
2013-07-03 07:16:00,71.0,69.0,30.19,SSW,205,0.0,-999.0,94,-99.99,,,-99.99,,2013-07-03 11:16:00,
2013-07-03 07:43:00,72.0,70.0,30.19,SSW,203,1.0,-999.0,94,-99.99,,,-99.99,,2013-07-03 11:43:00,
2013-07-03 07:54:00,72.0,70.0,30.20,SSW,201,0.0,-999.0,94,-99.99,,,-99.99,,2013-07-03 11:54:00,
2013-07-03 08:08:00,72.0,70.0,30.20,SSW,201,0.0,-999.0,94,-99.99,,,-99.99,,2013-07-03 12:08:00,
2013-07-03 08:16:00,73.0,71.0,30.20,SSW,201,0.0,-999.0,93,-99.99,,,-99.99,,2013-07-03 12:16:00,
2013-07-03 08:26:00,73.0,71.0,30.20,SSW,201,0.0,-999.0,93,-99.99,,,-99.99,,2013-07-03 12:26:00,
2013-07-03 08:37:00,73.0,71.0,30.21,SSW,201,0.0,-999.0,93,-99.99,,,-99.99,,2013-07-03 12:37:00,
2013-07-03 08:44:00,73.0,71.0,30.20,SSW,201,0.0,-999.0,92,-99.99,,,-99.99,,2013-07-03 12:44:00,
2013-07-03 08:57:00,73.0,71.0,30.21,SSW,201,0.0,-999.0,92,-99.99,,,-99.99,,2013-07-03 12:57:00,
2013-07-03 09:08:00,74.0,72.0,30.21,SSW,201,0.0,-999.0,92,-99.99,,,-99.99,,2013-07-03 13:08:00,
2013-07-03 10:47:00,76.0,73.0,30.21,SSW,193,0.0,-999.0,89,-99.99,,,-99.99,,2013-07-03 14:47:00,
2013-07-03 11:06:00,76.0,73.0,30.21,SSW,193,0.0,-999.0,89,-99.99,,,-99.99,,2013-07-03 15:06:00,
2013-07-03 11:26:00,77.0,74.0,30.20,SSW,193,0.0,-999.0,89,-99.99,,,-99.99,,2013-07-03 15:26:00,
2013-07-03 11:37:00,78.0,74.0,30.20,WNW,283,0.0,-999.0,88,-99.99,,,-99.99,,2013-07-03 15:37:00,
2013-07-03 11:47:00,78.0,74.0,30.20,West,276,0.0,-999.0,87,-99.99,,,-99.99,,2013-07-03 15:47:00,
2013-07-03 11:55:00,79.0,73.0,30.19,West,261,1.0,-999.0,83,-99.99,,,-99.99,,2013-07-03 15:55:00,
2013-07-03 12:07:00,80.0,74.0,30.20,SSE,158,1.0,-999.0,82,-99.99,,,-99.99,,2013-07-03 16:07:00,
2013-07-03 12:17:00,82.0,74.0,30.20,West,276,1.0,-999.0,77,-99.99,,,-99.99,,2013-07-03 16:17:00,
2013-07-03 12:23:00,82.0,74.0,30.20,West,276,1.0,-999.0,77,-99.99,,,-99.99,,2013-07-03 16:23:00,
2013-07-03 12:39:00,84.0,76.0,30.19,SE,145,1.0,-999.0,77,-99.99,,,-99.99,,2013-07-03 16:39:00,
2013-07-03 12:46:00,85.0,76.0,30.19,SE,145,0.0,-999.0,74,-99.99,,,-99.99,,2013-07-03 16:46:00,
2013-07-03 13:16:00,86.0,75.0,30.18,NW,313,1.0,-999.0,70,-99.99,,,-99.99,,2013-07-03 17:16:00,
2013-07-03 13:26:00,86.0,74.0,30.18,WNW,299,1.0,-999.0,68,-99.99,,,-99.99,,2013-07-03 17:26:00,
2013-07-03 13:47:00,86.0,75.0,30.18,SW,230,1.0,-999.0,70,-99.99,,,-99.99,,2013-07-03 17:47:00,
2013-07-03 14:07:00,88.0,76.0,30.18,NW,309,1.0,-999.0,68,-99.99,,,-99.99,,2013-07-03 18:07:00,
2013-07-03 14:16:00,88.0,76.0,30.17,ENE,57,1.0,-999.0,67,-99.99,,,-99.99,,2013-07-03 18:16:00,
2013-07-03 14:25:00,89.0,77.0,30.17,ENE,63,1.0,-999.0,68,-99.99,,,-99.99,,2013-07-03 18:25:00,
2013-07-03 14:37:00,87.0,75.0,30.17,ESE,114,1.0,-999.0,68,-99.99,,,-99.99,,2013-07-03 18:37:00,
2013-07-03 14:46:00,86.0,75.0,30.17,ESE,114,1.0,-999.0,70,-99.99,,,-99.99,,2013-07-03 18:46:00,
2013-07-03 14:56:00,83.0,76.0,30.17,ESE,114,0.0,-999.0,79,-99.99,,,-99.99,,2013-07-03 18:56:00,
2013-07-03 15:04:00,82.0,76.0,30.17,ESE,115,0.0,-999.0,83,-99.99,,,-99.99,,2013-07-03 19:04:00,
2013-07-03 15:16:00,80.0,75.0,30.17,ESE,115,0.0,-999.0,86,-99.99,,,-99.99,,2013-07-03 19:16:00,
2013-07-03 15:30:00,81.0,76.0,30.17,SE,143,0.0,-999.0,85,-99.99,,,-99.99,,2013-07-03 19:30:00,
2013-07-03 15:38:00,83.0,76.0,30.17,SSW,199,1.0,-999.0,80,-99.99,,,-99.99,,2013-07-03 19:38:00,
2013-07-03 15:47:00,85.0,77.0,30.16,SSW,199,1.0,-999.0,78,-99.99,,,-99.99,,2013-07-03 19:47:00,
2013-07-03 16:05:00,86.0,75.0,30.16,SSE,152,1.0,-999.0,71,-99.99,,,-99.99,,2013-07-03 20:05:00,
2013-07-03 16:25:00,86.0,76.0,30.15,WSW,238,1.0,-999.0,72,-99.99,,,-99.99,,2013-07-03 20:25:00,
2013-07-03 16:37:00,85.0,75.0,30.15,SSW,211,1.0,-999.0,72,-99.99,,,-99.99,,2013-07-03 20:37:00,
2013-07-03 16:45:00,85.0,75.0,30.15,SSW,211,1.0,-999.0,72,-99.99,,,-99.99,,2013-07-03 20:45:00,
2013-07-03 16:55:00,84.0,74.0,30.15,SSW,211,0.0,-999.0,73,-99.99,,,-99.99,,2013-07-03 20:55:00,
2013-07-03 17:06:00,84.0,75.0,30.15,SSE,151,1.0,-999.0,75,-99.99,,,-99.99,,2013-07-03 21:06:00,
2013-07-03 17:14:00,84.0,74.0,30.15,SSE,151,1.0,-999.0,73,-99.99,,,-99.99,,2013-07-03 21:14:00,
2013-07-03 17:45:00,84.0,75.0,30.14,SSE,152,1.0,-999.0,74,-99.99,,,-99.99,,2013-07-03 21:45:00,
2013-07-03 18:06:00,84.0,75.0,30.15,WNW,292,1.0,-999.0,74,-99.99,,,-99.99,,2013-07-03 22:06:00,
2013-07-03 18:15:00,84.0,75.0,30.15,WNW,292,0.0,-999.0,75,-99.99,,,-99.99,,2013-07-03 22:15:00,
2013-07-03 18:26:00,83.0,75.0,30.15,WNW,292,1.0,-999.0,77,-99.99,,,-99.99,,2013-07-03 22:26:00,
2013-07-03 18:54:00,81.0,74.0,30.15,SW,228,1.0,-999.0,79,-99.99,,,-99.99,,2013-07-03 22:54:00,
2013-07-03 19:14:00,81.0,75.0,30.15,SW,228,0.0,-999.0,82,-99.99,,,-99.99,,2013-07-03 23:14:00,
2013-07-03 19:40:00,80.0,74.0,30.15,South,187,0.0,-999.0,83,-99.99,,,-99.99,,2013-07-03 23:40:00,
2013-07-03 19:45:00,80.0,75.0,30.15,South,187,0.0,-999.0,84,-99.99,,,-99.99,,2013-07-03 23:45:00,
2013-07-03 19:55:00,79.0,74.0,30.15,South,187,0.0,-999.0,85,-99.99,,,-99.99,,2013-07-03 23:55:00,
2013-07-03 20:05:00,79.0,74.0,30.15,SW,232,0.0,-999.0,86,-99.99,,,-99.99,,2013-07-04 00:05:00,
2013-07-03 20:37:00,78.0,74.0,30.16,ESE,116,0.0,-999.0,87,-99.99,,,-99.99,,2013-07-04 00:37:00,
2013-07-03 20:56:00,77.0,73.0,30.17,ESE,114,0.0,-999.0,88,-99.99,,,-99.99,,2013-07-04 00:56:00,
2013-07-03 21:05:00,77.0,73.0,30.17,ESE,114,0.0,-999.0,87,-99.99,,,-99.99,,2013-07-04 01:05:00,
2013-07-03 21:16:00,77.0,73.0,30.17,ESE,112,0.0,-999.0,87,-99.99,,,-99.99,,2013-07-04 01:16:00,
2013-07-03 21:38:00,76.0,72.0,30.18,ESE,113,0.0,-999.0,88,-99.99,,,-99.99,,2013-07-04 01:38:00,
2013-07-03 21:44:00,76.0,72.0,30.18,ESE,113,0.0,-999.0,88,-99.99,,,-99.99,,2013-07-04 01:44:00,
2013-07-03 21:54:00,76.0,72.0,30.19,ESE,113,0.0,-999.0,88,-99.99,,,-99.99,,2013-07-04 01:54:00,
2013-07-03 22:08:00,76.0,73.0,30.19,ESE,113,0.0,-999.0,89,-99.99,,,-99.99,,2013-07-04 02:08:00,
2013-07-03 22:24:00,75.0,72.0,30.19,ESE,113,0.0,-999.0,89,-99.99,,,-99.99,,2013-07-04 02:24:00,
2013-07-03 22:49:00,75.0,72.0,30.19,ESE,115,0.0,-999.0,89,-99.99,,,-99.99,,2013-07-04 02:49:00,
2013-07-03 22:55:00,75.0,72.0,30.19,ESE,115,0.0,-999.0,89,-99.99,,,-99.99,,2013-07-04 02:55:00,
2013-07-03 23:05:00,75.0,72.0,30.19,ESE,116,0.0,-999.0,89,-99.99,,,-99.99,,2013-07-04 03:05:00,
2013-07-03 23:15:00,75.0,72.0,30.19,SE,131,0.0,-999.0,89,-99.99,,,-99.99,,2013-07-04 03:15:00,
2013-07-03 23:28:00,75.0,72.0,30.19,SE,131,0.0,-999.0,90,-99.99,,,-99.99,,2013-07-04 03:28:00,
2013-07-03 23:46:00,74.0,71.0,30.19,SE,127,0.0,-999.0,90,-99.99,,,-99.99,,2013-07-04 03:46:00,
2013-07-03 23:56:00,74.0,71.0,30.19,SE,127,0.0,-999.0,90,-99.99,,,-99.99,,2013-07-04 03:56:00,